Weather in Villingili

Maldives     0°45′21″N   73°26′03″E
temp.,
°C
wind,
m/s
gust,
m/s
humid.,
%
clouds,
%
prec.,
mm/h
press.,
hPa
HPBL,
m
14 april, wed
wed1423:00+28w447262 0.2 1013616
02:00+28wsw4469100 0.0 1010911
05:00+28wsw3368100 0.1 1010899
08:00+28w32676 0.0 1012811
11:00+28w336760 0.0 1012755
14:00+28w226575 0.0 1010851
17:00+28w336563 0.0 1010891
20:00+28wsw226496 0.0 1012777
15 april, thu
thu1523:00+28sw336523 0.0 1012833
02:00+28sw336622 0.0 1010896
05:00+28sw226539 0.0 1010833
08:00+28w22645 0.0 1012703
11:00+28wnw22635 0.0 1012667
14:00+28wnw346315 0.0 1009794
17:00+28w336222 0.0 1009866
20:00+28w23635 0.0 1012855
16 april, fri
fri1623:00+28w22645 0.0 1012792
02:00+28wnw226425 0.0 1010842
05:00+28w33645 0.0 1010855
08:00+28wnw236127 0.0 1012787
11:00+28wnw225918 0.0 1012727
14:00+28wnw225731 0.0 1010804
17:00+28w2255100 0.0 1010791
20:00+28wnw225649 0.0 1012712
17 april, sat
sat1723:00+28w115749 0.0 1012610
02:00+28wnw115995 0.0 1010554
05:00+27sse00605 0.0 1011546
08:00+27ese11595 0.0 1013544
11:00+28ese115810 0.0 1013547
14:00+28se115665 0.0 1010661
17:00+28se1154100 0.0 1011656
20:00+28sse2255100 0.0 1014638
18 april, sun
sun1823:00+28sse3257100 0.0 1014726
02:00+28sse225821 0.0 1012711
05:00+28sse335957 0.0 1012664
08:00+28sse225999 0.0 1014682
11:00+28s335997 0.0 1014736
14:00+28s33595 0.0 1012786
17:00+28sse22586 0.0 1011786
20:00+28s23599 0.0 1013718